FW6805 Weather Reports


time (UTC)temp
C
wind
direction
speed
KPH
gust
KPH
rain 1hr
cm
rain 24hr
cm
rain mn
cm
humidity
%
barometer
mb
20260508122102 5 296 11.3 16.1 0.00 0.00 0.00 67 932.5
20260508121055 5 286 11.3 16.1 0.00 0.00 0.00 68 932.4
20260508120026 5 265 11.3 16.1 0.00 0.00 0.00 70 932.3
20260508115020 5 275 11.3 16.1 0.00 0.00 0.00 71 932.2
20260508114043 4 244 6.4 8.0 0.00 0.00 0.00 77 932.2
20260508113056 4 167 1.6 1.6 0.00 0.00 0.00 78 932.1
20260508112050 3 0.0 0.0 0.00 0.00 0.00 79 932.1
20260508111043 3 157 0.0 1.6 0.00 0.00 0.00 77 932.2
20260508110107 4 147 0.0 1.6 0.00 0.00 0.00 77 932.1
20260508105037 5 154 1.6 4.8 0.00 0.00 0.00 76 932.1
20260508104031 4 161 0.0 1.6 0.00 0.00 0.00 76 932.2
20260508103022 3 160 0.0 1.6 0.00 0.00 0.00 69 932.3
20260508102048 4 0.0 0.0 0.00 0.00 0.00 64 932.3
20260508101039 4 0.0 0.0 0.00 0.00 0.00 64 932.4
20260508100053 3 0.0 0.0 0.00 0.00 0.00 74 932.3
20260508095023 3 0.0 0.0 0.00 0.00 0.00 68 932.3
20260508094019 4 0.0 0.0 0.00 0.00 0.00 66 932.4
20260508093040 4 162 1.6 1.6 0.00 0.00 0.00 67 932.4
20260508092034 4 0.0 0.0 0.00 0.00 0.00 73 932.4
20260508091025 4 0.0 0.0 0.00 0.00 0.00 75 932.4
20260508090018 4 0.0 0.0 0.00 0.00 0.00 74 932.5
20260508085043 5 164 0.0 1.6 0.00 0.00 0.00 74 932.6
20260508084035 5 164 1.6 4.8 0.00 0.00 0.00 72 932.6
20260508083029 5 165 1.6 4.8 0.00 0.00 0.00 70 932.8
20260508082020 5 173 1.6 4.8 0.00 0.00 0.00 64 932.9
20260508081045 5 176 1.6 4.8 0.00 0.00 0.00 61 933.0
20260508080036 5 165 1.6 1.6 0.00 0.00 0.00 59 933.1
20260508075030 5 163 1.6 4.8 0.00 0.00 0.00 61 933.1
20260508074021 6 180 3.2 4.8 0.00 0.00 0.00 64 933.2
20260508073107 6 181 3.2 4.8 0.00 0.00 0.00 65 933.3
20260508072058 6 188 3.2 4.8 0.00 0.00 0.00 68 933.3
20260508071031 6 178 1.6 4.8 0.00 0.00 0.00 71 933.5
20260508070023 6 151 1.6 4.8 0.00 0.00 0.00 73 933.6
20260508065048 6 166 1.6 4.8 0.00 0.00 0.00 74 933.4
20260508064040 7 0.0 0.0 0.00 0.00 0.00 68 933.3
20260508063032 7 165 1.6 1.6 0.00 0.00 0.00 68 933.5
20260508062026 7 167 1.6 1.6 0.00 0.00 0.00 63 933.5
20260508061017 7 168 1.6 1.6 0.00 0.00 0.00 68 933.5
20260508060043 8 164 1.6 1.6 0.00 0.00 0.00 64 933.4
20260508055033 8 165 1.6 1.6 0.00 0.00 0.00 52 933.6
20260508054027 8 157 0.0 1.6 0.00 0.00 0.00 49 933.6
20260508053019 9 0.0 0.0 0.00 0.00 0.00 46 933.5
20260508052044 10 157 0.0 1.6 0.00 0.00 0.00 42 933.6
20260508051035 9 159 0.0 1.6 0.00 0.00 0.00 44 933.7
20260508050029 9 162 1.6 4.8 0.00 0.00 0.00 47 933.6
20260508045020 9 164 1.6 4.8 0.00 0.00 0.00 52 933.7
20260508044045 10 161 1.6 4.8 0.00 0.00 0.00 54 933.7
20260508043036 10 0.0 0.0 0.00 0.00 0.00 50 933.8
20260508042030 10 0.0 0.0 0.00 0.00 0.00 42 933.9
20260508041023 10 159 0.0 1.6 0.00 0.00 0.00 49 934.0
20260508040047 10 154 0.0 1.6 0.00 0.00 0.00 47 934.0
20260508035040 10 0.0 0.0 0.00 0.00 0.00 46 933.8
20260508034051 10 0.0 0.0 0.00 0.00 0.00 41 933.7
20260508033025 10 131 0.0 1.6 0.00 0.00 0.00 36 933.8
20260508032016 11 115 1.6 4.8 0.00 0.00 0.00 35 933.8
20260508031041 11 105 3.2 6.4 0.00 0.00 0.00 34 933.8
20260508030033 11 97 4.8 8.0 0.00 0.00 0.00 33 933.7
20260508025026 12 78 4.8 8.0 0.00 0.00 0.00 32 933.6
20260508024017 12 76 6.4 8.0 0.00 0.00 0.00 30 933.5
20260508023103 13 57 8.0 12.9 0.00 0.00 0.00 29 933.4
20260508022036 13 114 3.2 4.8 0.00 0.00 0.00 29 933.2
20260508021027 13 86 4.8 8.0 0.00 0.00 0.00 28 933.1
20260508020020 13 91 4.8 12.9 0.00 0.00 0.00 29 932.9
20260508015044 14 81 4.8 6.4 0.00 0.00 0.00 28 932.8
20260508014037 15 81 4.8 8.0 0.00 0.00 0.00 27 932.8
20260508013028 15 67 4.8 8.0 0.00 0.00 0.00 26 932.8
20260508012022 15 69 4.8 12.9 0.00 0.00 0.00 25 932.8
20260508011046 16 54 8.0 12.9 0.00 0.00 0.00 25 932.6
20260508010039 16 4 11.3 17.7 0.00 0.00 0.00 25 932.6
20260508005034 16 11 8.0 11.3 0.00 0.00 0.00 25 932.6
20260508004023 16 1 11.3 19.3 0.00 0.00 0.00 25 932.5
20260508003047 17 355 11.3 17.7 0.00 0.00 0.00 24 932.5
20260508002040 17 1 9.7 17.7 0.00 0.00 0.00 22 932.5
20260508001031 17 343 11.3 17.7 0.00 0.00 0.00 22 932.5
20260508000024 17 352 12.9 17.7 0.00 0.00 0.00 22 932.5
20260507235018 18 8 14.5 19.3 0.00 0.00 0.00 21 932.5
20260507234041 18 334 14.5 22.5 0.00 0.00 0.00 21 932.6
20260507233035 17 308 12.9 17.7 0.00 0.00 0.00 21 932.6
20260507232030 18 301 12.9 25.7 0.00 0.00 0.00 23 932.6
20260507231040 17 313 14.5 29.0 0.00 0.00 0.00 23 932.6
20260507230043 17 290 16.1 24.1 0.00 0.00 0.00 29 932.6
20260507225036 17 254 11.3 19.3 0.00 0.00 0.00 31 932.6
20260507224027 17 284 11.3 19.3 0.00 0.00 0.00 29 932.6
20260507223021 17 254 17.7 24.1 0.00 0.00 0.00 30 932.7
20260507222044 17 275 12.9 24.1 0.00 0.00 0.00 25 933.0
20260507221037 17 355 12.9 22.5 0.00 0.00 0.00 21 932.9
20260507220028 17 287 14.5 25.7 0.00 0.00 0.00 24 933.1
20260507215022 17 320 9.7 16.1 0.00 0.00 0.00 21 933.2
20260507214047 17 311 12.9 22.5 0.00 0.00 0.00 21 933.2
20260507213038 17 320 14.5 29.0 0.00 0.00 0.00 22 933.5
20260507212032 17 272 9.7 25.7 0.00 0.00 0.00 24 933.5
20260507211023 16 305 12.9 25.7 0.00 0.00 0.00 23 933.6
20260507210049 17 203 9.7 12.9 0.00 0.00 0.00 26 933.7
20260507205040 16 276 11.3 24.1 0.00 0.00 0.00 24 933.8
20260507204033 16 260 11.3 16.1 0.00 0.00 0.00 28 933.9
20260507203105 16 263 12.9 25.7 0.00 0.00 0.00 25 934.0
20260507202022 16 284 16.1 24.1 0.00 0.00 0.00 29 934.2
20260507201041 16 255 9.7 16.1 0.00 0.00 0.00 23 934.2
20260507200034 16 274 12.9 24.1 0.00 0.00 0.00 28 934.2
20260507195026 16 239 8.0 16.1 0.00 0.00 0.00 25 934.3
20260507194019 16 246 11.3 19.3 0.00 0.00 0.00 25 934.4
20260507193105 15 293 14.5 29.0 0.00 0.00 0.00 25 934.4
20260507192036 15 263 12.9 22.5 0.00 0.00 0.00 27 934.5
20260507191029 15 257 9.7 16.1 0.00 0.00 0.00 24 934.6
20260507190041 15 318 14.5 22.5 0.00 0.00 0.00 25 934.5
20260507185046 15 299 11.3 17.7 0.00 0.00 0.00 23 934.5
20260507184037 15 263 6.4 16.1 0.00 0.00 0.00 23 934.6
20260507183031 15 283 9.7 16.1 0.00 0.00 0.00 28 934.7
20260507182022 14 232 6.4 12.9 0.00 0.00 0.00 25 934.9
20260507181047 14 233 8.0 12.9 0.00 0.00 0.00 25 934.9
20260507180041 14 230 8.0 12.9 0.00 0.00 0.00 26 935.1
20260507175032 14 228 6.4 16.1 0.00 0.00 0.00 27 935.3
20260507174023 13 228 6.4 11.3 0.00 0.00 0.00 27 935.3
20260507173017 13 232 6.4 11.3 0.00 0.00 0.00 27 935.3
20260507172102 13 242 8.0 12.9 0.00 0.00 0.00 25 935.4
20260507171033 13 337 11.3 25.7 0.00 0.00 0.00 25 935.5
20260507170027 13 321 6.4 17.7 0.00 0.00 0.00 27 935.4
20260507165018 13 246 11.3 19.3 0.00 0.00 0.00 28 935.5
20260507164104 12 271 8.0 12.9 0.00 0.00 0.00 31 935.6
20260507163039 12 188 4.8 8.0 0.00 0.00 0.00 31 935.7
20260507162028 12 197 6.4 12.9 0.00 0.00 0.00 32 935.9
20260507161019 12 291 6.4 11.3 0.00 0.00 0.00 34 935.9
20260507160045 11 221 6.4 11.3 0.00 0.00 0.00 39 936.1
20260507155038 10 198 3.2 6.4 0.00 0.00 0.00 42 936.1
20260507154029 10 176 3.2 8.0 0.00 0.00 0.00 44 936.0
20260507153021 9 175 4.8 6.4 0.00 0.00 0.00 46 936.2
20260507152046 8 193 4.8 6.4 0.00 0.00 0.00 49 936.2
20260507151040 7 208 4.8 6.4 0.00 0.00 0.00 50 936.2
20260507150031 6 183 4.8 8.0 0.00 0.00 0.00 52 936.3
20260507145024 6 195 4.8 8.0 0.00 0.00 0.00 53 936.4
20260507144108 5 210 4.8 8.0 0.00 0.00 0.00 54 936.3
20260507143101 5 222 4.8 8.0 0.00 0.00 0.00 56 936.4
20260507142036 5 227 4.8 8.0 0.00 0.00 0.00 58 936.3
20260507141025 3 174 3.2 6.4 0.00 0.00 0.00 59 936.3
20260507140017 3 161 3.2 4.8 0.00 0.00 0.00 68 936.2
20260507135042 2 188 3.2 6.4 0.00 0.00 0.00 70 936.2
20260507134033 1 204 4.8 8.0 0.00 0.00 0.00 74 936.3
20260507133047 1 247 4.8 8.0 0.00 0.00 0.00 76 936.2
20260507132020 1 251 4.8 6.4 0.00 0.00 0.00 79 936.1
20260507131124 0 199 3.2 6.4 0.00 0.00 0.00 78 936.1
20260507130036 0 174 3.2 4.8 0.00 0.00 0.00 75 936.0
20260507125030 1 156 0.0 1.6 0.00 0.00 0.00 70 935.8
20260507124021 0 157 0.0 1.6 0.00 0.00 0.00 69 935.8
20260507123045 0 145 0.0 1.6 0.00 0.00 0.00 70 935.9